[[{"header":{"parameterUnit":"m.s-1","parameterCategory":1,"la1":30.2991,"la2":30.254,"lo1":-89.0895,"lo2":-89.0444,"dy":0.0017,"dx":0.0017,"nx":28,"ny":28,"refTime":"2024-06-22T21:00:00:Z","depth":0,"parameterNumber":2,"parameterNumberName":"U-component_of_WINDS"},"data":[0,0,0,0,0,0,0,0,0,0,0,0,0,0,0,0,0,0,0,0,0,0,0,0,0,0,0,0,0,0,0,0,0,0,0,0,0,0,0,0,0,0,0,0,0,0,0,0,0,0,0,0,0,0,0,0,0,0,1.5706,1.5707,0,1.5791,1.5792,1.5793,1.5823,1.5823,1.5823,1.5823,1.5907,1.591,1.5912,0,0,0,0,0,0,0,0,0,0,0,0,0,1.5565,1.5567,1.5706,1.5707,1.5708,1.5791,1.5792,1.5793,1.5824,1.5823,1.5823,1.5822,1.5907,1.591,1.5913,0,0,0,0,0,0,0,0,0,0,0,0,0,1.5636,1.5568,1.5706,1.5733,1.5736,1.5791,1.5792,1.5794,1.5824,1.5823,1.5823,1.5822,1.5906,1.5909,1.5913,1.5946,0,0,1.5925,1.5926,0,0,0,0,0,0,0,0,1.5632,1.5641,1.5728,1.5731,1.5735,1.5796,1.5774,1.5845,1.5824,1.579,1.5823,1.5822,1.5871,1.5877,1.5894,1.595,1.5953,1.5925,1.5927,1.5929,1.593,0,0,0,0,0,0,0,1.5627,1.5637,1.574,1.5729,1.5734,1.574,1.5749,1.5787,1.5832,1.5793,1.5796,1.5806,1.5872,1.589,1.5896,1.5955,1.5925,1.5928,1.5931,1.5932,1.6039,1.604,0,0,0,0,0,0,1.5618,1.5633,1.5737,1.5742,1.5681,1.5743,1.5753,1.5777,1.5832,1.584,1.5806,1.5807,1.5884,1.5892,1.59,1.594,1.5929,1.5933,1.5935,1.6039,1.6039,1.604,0,0,0,0,0,0,1.5615,1.5627,1.5733,1.5688,1.5702,1.5746,1.5772,1.5779,1.5797,1.5841,1.5849,1.5816,1.5884,1.5894,1.5934,1.5944,1.5934,1.5938,1.6038,1.6039,1.604,1.6023,0,0,0,0,0,0,1.561,1.5625,1.5639,1.5688,1.5705,1.5767,1.5773,1.5781,1.5804,1.5806,1.5853,1.586,1.5885,1.5928,1.5938,1.5949,1.5941,1.6037,1.6038,1.6039,1.6023,1.6023,1.6023,0,0,0,0,0,1.5605,1.5631,1.564,1.5652,1.5723,1.5768,1.5777,1.5805,1.5805,1.5818,1.5846,1.5859,1.5941,1.5932,1.5943,1.5955,1.6037,1.6038,1.6039,1.6023,1.6023,1.6023,0,0,0,0,0,0,1.5581,1.5638,1.5648,1.5691,1.5724,1.5773,1.5791,1.5805,1.5838,1.5839,1.5871,1.5881,1.5918,1.5941,1.5929,1.5989,1.599,1.5993,1.5973,1.5974,1.5974,1.5968,1.5944,0,0,0,0,0,1.5581,1.5614,1.5661,1.5694,1.571,1.5747,1.5768,1.5787,1.5822,1.5836,1.5867,1.5901,1.5934,1.5955,1.5988,1.6026,1.6036,1.604,1.604,1.604,1.6043,1.6063,1.6065,1.6044,1.6044,1.6044,0,0,1.558,1.5615,1.5634,1.569,1.5718,1.575,1.5759,1.5793,1.5816,1.5841,1.5881,1.5904,1.5943,1.5982,1.6,1.6002,1.6051,1.6042,1.6042,1.6044,1.6065,1.6067,1.6068,1.6045,1.6045,1.6045,0,0,1.5596,1.5626,1.5656,1.5684,1.5727,1.5751,1.5758,1.5805,1.5821,1.5862,1.5881,1.5908,1.5965,1.5992,1.6013,1.6037,1.6049,1.6047,1.6048,1.6067,1.6069,1.6071,1.6078,1.6081,1.6049,1.6049,1.6049,0,1.5589,1.5639,1.567,1.5702,1.5725,1.575,1.5779,1.5805,1.5856,1.587,1.5871,1.5943,1.5971,1.6015,1.6021,1.6037,1.6045,1.6041,1.6067,1.6068,1.607,1.6078,1.6081,1.6048,1.6048,1.6048,1.6049,0,1.5629,1.5663,1.5682,1.5731,1.5756,1.5787,1.5821,1.5843,1.5859,1.5882,1.5922,1.5956,1.5996,1.6008,1.6024,1.6055,1.6054,1.606,1.6062,1.6071,1.6079,1.6082,1.6047,1.6048,1.6048,1.6048,0,0,1.5632,1.5697,1.5703,1.5725,1.5773,1.58,1.5831,1.587,1.5888,1.5922,1.5948,1.5995,1.6001,1.6024,1.6043,1.606,1.6076,1.6065,1.6066,1.6065,1.611,1.6105,1.6108,1.6084,1.6085,1.6086,1.6106,0,1.5653,1.5711,1.5738,1.5784,1.5815,1.5838,1.5865,1.5896,1.5919,1.5948,1.5973,1.6005,1.6011,1.6025,1.6043,1.607,1.6085,1.6069,1.6108,1.6109,1.6097,1.6112,1.6107,1.6125,1.611,1.611,1.6111,0,1.5685,1.572,1.5768,1.5812,1.5826,1.585,1.5888,1.5915,1.5951,1.5966,1.5992,1.601,1.6042,1.6041,1.6085,1.6074,1.6091,1.6106,1.6108,1.6112,1.611,1.6116,1.6131,1.6134,1.6116,1.6115,1.6115,0,1.5681,1.574,1.5776,1.5794,1.5846,1.5862,1.5884,1.592,1.5941,1.5974,1.5988,1.6024,1.6043,1.607,1.6096,1.6093,1.6137,1.6139,1.615,1.6149,1.6158,1.6157,1.6176,1.617,1.617,1.617,1.617,0,1.5702,1.573,1.5775,1.5797,1.5829,1.586,1.589,1.5914,1.5945,1.5971,1.5993,1.6017,1.6051,1.6079,1.61,1.6133,1.6141,1.6154,1.6159,1.6152,1.615,1.6163,1.6163,1.6171,1.6171,1.617,1.617,0,1.5703,1.5734,1.5775,1.5821,1.5833,1.5854,1.5893,1.5915,1.5938,1.5971,1.598,1.6017,1.6051,1.608,1.6125,1.6139,1.6172,1.6179,1.616,1.6163,1.6172,1.6171,1.62,1.6205,1.6196,1.6196,1.6196,0,1.5714,1.5736,1.5784,1.5804,1.5826,1.5857,1.5879,1.591,1.5932,1.5973,1.599,1.6025,1.6055,1.6108,1.6138,1.6171,1.6179,1.6187,1.6184,1.6175,1.6178,1.6176,1.6178,1.6186,1.6186,1.6186,1.6186,0,1.5729,1.5743,1.5775,1.5812,1.5838,1.5868,1.5899,1.5913,1.5949,1.5972,1.6007,1.6031,1.6076,1.6111,1.6147,1.6169,1.6183,1.6187,1.6191,1.6184,1.6172,1.6178,1.616,1.6186,1.6186,1.6186,1.6186,1.6186,1.5735,1.5756,1.5792,1.5827,1.5853,1.5881,1.5904,1.593,1.596,1.6,1.6016,1.6051,1.6085,1.6136,1.6157,1.6185,1.6187,1.6194,1.6195,1.6196,1.6195,1.6168,1.6192,1.6192,1.6192,1.6192,1.6192,0,1.5751,1.5775,1.5807,1.5849,1.5876,1.5888,1.5922,1.5943,1.5974,1.6005,1.6034,1.6074,1.6107,1.6139,1.6174,1.619,1.6197,1.6198,1.6197,1.6201,1.6191,1.6183,1.6191,1.6191,1.6191,1.6191,1.6191,1.6191,1.5762,1.5797,1.5816,1.5864,1.5888,1.5924,1.5942,1.5967,1.5992,1.6036,1.6064,1.6085,1.6116,1.6153,1.6183,1.6192,1.6203,1.6202,1.6212,1.6202,1.6202,1.6202,1.6195,1.6205,1.6205,1.622,1.6221,1.6221]},{"header":{"parameterUnit":"m.s-1","parameterCategory":1,"la1":30.2991,"la2":30.254,"lo1":-89.0895,"lo2":-89.0444,"dy":0.0017,"dx":0.0017,"nx":28,"ny":28,"refTime":"2024-06-22T21:00:00:Z","depth":0,"parameterNumber":3,"parameterNumberName":"V-component_of_WINDS"},"data":[0,0,0,0,0,0,0,0,0,0,0,0,0,0,0,0,0,0,0,0,0,0,0,0,0,0,0,0,0,0,0,0,0,0,0,0,0,0,0,0,0,0,0,0,0,0,0,0,0,0,0,0,0,0,0,0,0,0,3.6405,3.6405,0,3.641,3.641,3.641,3.6349,3.6347,3.6346,3.6344,3.6348,3.635,3.6352,0,0,0,0,0,0,0,0,0,0,0,0,0,3.6341,3.6343,3.6405,3.6405,3.6405,3.641,3.641,3.641,3.6349,3.6347,3.6345,3.6344,3.6348,3.635,3.6352,0,0,0,0,0,0,0,0,0,0,0,0,0,3.636,3.6343,3.6405,3.6375,3.6373,3.641,3.641,3.641,3.635,3.6347,3.6345,3.6343,3.6347,3.635,3.6352,3.6417,0,0,3.636,3.6361,0,0,0,0,0,0,0,0,3.6359,3.6362,3.638,3.6377,3.6375,3.6376,3.6389,3.6412,3.635,3.6359,3.6344,3.6341,3.636,3.6361,3.6367,3.6417,3.6417,3.636,3.6361,3.6362,3.6363,0,0,0,0,0,0,0,3.6358,3.6362,3.6407,3.638,3.6377,3.6361,3.6361,3.6393,3.6373,3.6358,3.6353,3.6355,3.6358,3.6365,3.6367,3.6417,3.636,3.6362,3.6364,3.6364,3.6519,3.6522,0,0,0,0,0,0,3.6361,3.6361,3.6406,3.6407,3.6361,3.6365,3.6364,3.6378,3.6372,3.6369,3.6357,3.6352,3.6362,3.6364,3.6367,3.6441,3.6362,3.6365,3.6366,3.6516,3.652,3.6522,0,0,0,0,0,0,3.636,3.6365,3.6406,3.6383,3.6387,3.6368,3.6384,3.638,3.6387,3.6372,3.6368,3.6368,3.636,3.6363,3.6405,3.644,3.6366,3.6368,3.6513,3.6517,3.6521,3.6591,0,0,0,0,0,0,3.6358,3.6365,3.639,3.6384,3.6388,3.6445,3.6387,3.6381,3.6391,3.6385,3.6381,3.6378,3.6358,3.6401,3.6407,3.6442,3.637,3.651,3.6515,3.652,3.6586,3.6597,3.6607,0,0,0,0,0,3.6356,3.641,3.6392,3.6398,3.6419,3.6447,3.6449,3.6426,3.6395,3.6419,3.6409,3.6378,3.6436,3.6406,3.6412,3.6449,3.6508,3.6514,3.6519,3.6581,3.6595,3.6607,0,0,0,0,0,0,3.6421,3.6409,3.6388,3.6442,3.6446,3.6437,3.6467,3.6442,3.6454,3.6448,3.6418,3.6417,3.6463,3.646,3.6427,3.651,3.6466,3.6474,3.6511,3.6524,3.6534,3.6534,3.6372,0,0,0,0,0,3.6442,3.6466,3.6453,3.6502,3.6505,3.6486,3.6497,3.6478,3.6481,3.6482,3.6476,3.6479,3.6498,3.6511,3.6527,3.6585,3.6583,3.6613,3.6624,3.6633,3.6639,3.6668,3.6681,3.6542,3.6542,3.6542,0,0,3.6485,3.6481,3.6498,3.6515,3.6516,3.654,3.6488,3.6516,3.6534,3.6487,3.6525,3.652,3.6522,3.6572,3.6593,3.657,3.6677,3.664,3.6647,3.6649,3.6675,3.6689,3.67,3.6546,3.6545,3.6544,0,0,3.6575,3.6575,3.6615,3.6617,3.6619,3.6605,3.6615,3.6609,3.6604,3.6642,3.6607,3.6627,3.666,3.6663,3.6668,3.6759,3.673,3.6765,3.682,3.6849,3.686,3.6869,3.69,3.6912,3.6772,3.6772,3.6772,0,3.6628,3.6664,3.6638,3.6669,3.6677,3.6635,3.6675,3.6678,3.6685,3.6691,3.6666,3.6706,3.6704,3.6753,3.6775,3.6781,3.679,3.6765,3.686,3.687,3.6878,3.6907,3.6919,3.6776,3.6776,3.6775,3.6775,0,3.6728,3.6754,3.6786,3.6793,3.6805,3.684,3.6819,3.6834,3.6814,3.6803,3.6842,3.6838,3.6853,3.6863,3.6844,3.6909,3.6895,3.6866,3.682,3.6896,3.6923,3.6934,3.6782,3.678,3.6779,3.6778,0,0,3.686,3.6852,3.6864,3.6867,3.6865,3.6884,3.6917,3.6931,3.6944,3.695,3.6976,3.7005,3.6977,3.6984,3.6965,3.699,3.706,3.6957,3.6957,3.6975,3.713,3.7151,3.7164,3.7042,3.7044,3.7045,3.7129,0,3.6947,3.7002,3.6979,3.7037,3.7059,3.7019,3.7047,3.7049,3.704,3.7057,3.7047,3.7067,3.703,3.7034,3.7057,3.7047,3.709,3.704,3.7065,3.7066,3.7064,3.7178,3.7201,3.728,3.7139,3.7141,3.7143,0,3.7056,3.7066,3.7125,3.7119,3.7127,3.7153,3.7163,3.7181,3.7182,3.7173,3.718,3.7155,3.7186,3.7142,3.7183,3.7149,3.7158,3.7154,3.7157,3.7157,3.7108,3.7181,3.7305,3.7317,3.7159,3.7158,3.7157,0,3.7144,3.7173,3.7211,3.7215,3.7209,3.7227,3.7226,3.7224,3.7234,3.7243,3.7248,3.7261,3.7268,3.7278,3.7257,3.7227,3.7301,3.7255,3.7294,3.7294,3.731,3.7309,3.7437,3.7318,3.7318,3.7318,3.7318,0,3.7243,3.728,3.7251,3.7275,3.7315,3.7288,3.7329,3.7323,3.7322,3.7343,3.731,3.733,3.7302,3.732,3.7304,3.734,3.7343,3.7337,3.7332,3.7339,3.734,3.7343,3.7337,3.7321,3.732,3.732,3.7319,0,3.7348,3.733,3.7369,3.736,3.7358,3.7388,3.738,3.7401,3.7389,3.7417,3.7421,3.7403,3.7422,3.7402,3.742,3.7409,3.7457,3.7445,3.7457,3.7453,3.7492,3.7489,3.7625,3.7641,3.7514,3.7515,3.7516,0,3.7412,3.7439,3.7433,3.7444,3.7444,3.7464,3.7473,3.7448,3.7459,3.7461,3.7482,3.7498,3.751,3.7542,3.753,3.7544,3.753,3.7578,3.7532,3.7538,3.753,3.7528,3.753,3.7586,3.7588,3.7589,3.759,0,3.7526,3.7515,3.753,3.7542,3.7553,3.7561,3.7567,3.7578,3.7552,3.7566,3.7584,3.7593,3.7611,3.7628,3.7637,3.7635,3.7608,3.7605,3.7614,3.7621,3.7626,3.7623,3.7481,3.7601,3.76,3.7599,3.7599,3.7598,3.7611,3.7634,3.7632,3.7649,3.765,3.7656,3.7675,3.7665,3.768,3.7693,3.7677,3.77,3.7699,3.7709,3.771,3.7727,3.7707,3.7721,3.7725,3.7728,3.7733,3.7625,3.7729,3.7729,3.7728,3.7728,3.7728,0,3.7723,3.772,3.7736,3.7744,3.7757,3.7731,3.7735,3.7747,3.7768,3.777,3.7782,3.7803,3.7818,3.7807,3.782,3.7836,3.7824,3.784,3.7838,3.7838,3.7751,3.7741,3.785,3.785,3.785,3.785,3.785,3.785,3.7782,3.7818,3.7807,3.7843,3.7839,3.7861,3.7866,3.787,3.7871,3.7896,3.7909,3.7901,3.7898,3.791,3.7923,3.7919,3.7925,3.7945,3.7937,3.7856,3.7844,3.7833,3.7823,3.7947,3.7947,3.8022,3.8023,3.8023]}]]